Miscellaneous Local Product
Issued by NWS Hastings, NE

Home | Current Version | Previous Version | Text Only | Print | Product List | Glossary Off
Versions: 1 2 3 4 5 6 7 8 9 10 11 12 13 14 15 16 17 18 19 20 21 22 23 24 25 26 27 28 29 30 31 32 33 34 35 36 37 38 39 40 41 42 43 44 45 46 47 48 49 50

000
AXUS43 KGID 210702
MISGRI

GID CWA HOURLY WEATHER ROUNDUP
NATIONAL WEATHER SERVICE HASTINGS NE
200 AM CDT THU AUG 21 2014

NOTE: "FAIR" INDICATES FEW OR NO CLOUDS BELOW 12,000 FEET WITH NO
SIGNIFICANT WEATHER AND/OR OBSTRUCTIONS TO VISIBILITY.

...SOUTH CENTRAL NEBRASKA...

CITY           SKY/WX    TMP DP  RH WIND       PRES   REMARKS
GRAND ISLAND   LGT RAIN  79  66  64 SW20G29   29.80R
HASTINGS       TSTM      75  60  59 W9G17     29.84R
KEARNEY        CLOUDY    70  61  73 E15G21    29.81S
ORD            CLOUDY    77  65  66 SW14G22   29.75F
YORK           CLOUDY    77 N/A N/A S13       29.78R
AURORA         CLOUDY    79  71  74 W9G20     29.78R
LEXINGTON      LGT RAIN  70  67  89 NW6       29.83R
HOLDREGE       LGT RAIN  72  67  84 CALM      29.80S
HEBRON         CLOUDY    78  64  61 S10G17    29.78F

...NEBRASKA PANHANDLE...

CITY           SKY/WX    TMP DP  RH WIND       PRES   REMARKS
CHADRON        CLEAR     61  52  72 VRB3      29.87R
ALLIANCE       MOCLDY    69  55  60 SW8       29.87F
SCOTTSBLUFF    PTCLDY    68  51  54 NW6       29.90F
SIDNEY         MOCLDY    63  59  87 S3        29.92F

...WESTERN AND NORTH CENTRAL NEBRASKA...

CITY           SKY/WX    TMP DP  RH WIND       PRES   REMARKS
VALENTINE      PTCLDY    71  60  68 W3        29.78R
AINSWORTH      PTCLDY    71  66  85 S8        29.78R
ONEILL         MOCLDY    75  73  93 SW5       29.74R
BROKEN BOW     TSTM      72  62  71 SW25G38   29.80S
IMPERIAL       PTCLDY    67  63  87 CALM      29.86R
NORTH PLATTE   CLOUDY    68  61  78 CALM      29.82R
MCCOOK         MOCLDY    72  63  73 NE8       29.81R

...EASTERN NEBRASKA...

CITY           SKY/WX    TMP DP  RH WIND       PRES   REMARKS
NORFOLK        CLOUDY    79  69  71 S13       29.72F
SO SIOUX CITY  CLOUDY    78  73  84 S9G17     29.72F
TEKAMAH        MOCLDY    78  73  84 SE10      29.75F
COLUMBUS       CLOUDY    64  64 100 S13G18    29.76S
ALBION         CLOUDY    77  68  73 S7        29.76R
OMAHA EPPLEY   MOCLDY    81  71  71 S14       29.78F
OFFUTT AFB     PTCLDY    79  76  90 SE9       29.78F
MILLARD        PTCLDY    81  71  71 SE8       29.77F
LINCOLN        MOCLDY    82  67  60 S16       29.77S
NEBRASKA CITY  PTCLDY    78  68  72 S13       29.81S
BEATRICE       MOCLDY    82  66  59 S15G22    29.80S
FALLS CITY     PTCLDY    80  68  66 S13       29.82F

...NORTHERN KANSAS...

CITY           SKY/WX    TMP DP  RH WIND       PRES   REMARKS
GOODLAND       PTCLDY    66  61  84 NW14G24   29.86R
HILL CITY      CLOUDY    86  61  42 S16G25    29.77S
NORTON         MOSUNNY   75  64  69 CALM      29.78S
PHILLIPSBURG   CLEAR     82  63  51 SE7       29.78S
SMITH CENTER   CLEAR     82  61  47 S14       29.79S
BELOIT         CLEAR     81  64  57 SE13      29.77F
HAYS           MOCLDY    82  61  47 S17G23    29.81F
RUSSELL        MOCLDY    82  61  48 S23G30    29.79F
CONCORDIA      PTCLDY    80  66  62 S20G32    29.80R
SALINA         CLEAR     82  66  58 S14G25    29.82S
TOPEKA         PTCLDY    83  70  64 S14G21    29.86F



USA.gov is the U.S. government's official web portal to all federal, state and local government web resources and services.